Location: Apollinopolis Magna
(24.9792°N, 32.8772°E)
Time: 18:52:15
(UTC+00:00)

Centaur AC-64 - Pass Details

Date: 02 March 2021
Orbit: 304 x 25687 km, 23.3° (Epoch: 08 April)

Event Time Altitude Azimuth Distance (km) Brightness Sun altitude
Rises 17:52:06 0° 261° (W) 15,810 10.8 -28.2°
Reaches altitude 10° 18:14:11 10° 262° (W) 9,397 9.3 -33.1°
Enters shadow 18:34:25 66° 241° (WSW) 1,445 4.3 -37.6°
